Vorticity
19 17 17 18 18 19 20 20 21 22 23 24 24 22 19 17 17 15 11 5 -1 -2 1 7 10 10 9 8 15 20 23 23 22 19 16 15 16 17 17 16 11 7 7 15 29 36 37 37 34 27 19 13 13 11 9 6 1 -0 0 1 -3 1 7 10 3 -1 -3 -1 1
26 22 21 22 21 21 21 22 23 23 24 23 22 21 20 18 18 14 8 -1 -4 -2 1 5 8 11 12 11 18 22 24 23 21 18 16 14 15 16 16 13 8 5 8 19 31 30 25 22 23 15 5 2 5 8 12 17 15 9 2 -4 -7 1 9 7 -1 -3 -2 2 3
29 27 26 24 22 20 21 22 24 24 24 24 22 21 20 20 17 11 3 -5 -5 -1 3 4 7 11 15 16 22 24 23 22 20 18 15 13 13 12 11 9 7 7 13 23 29 25 18 13 8 -2 -11 -12 -7 -1 5 16 21 15 3 -8 3 16 20 5 -2 -2 1 5 5
16 19 22 21 19 18 19 21 23 24 23 22 22 21 21 20 15 7 -1 -7 -4 1 4 4 4 8 14 20 24 24 22 21 20 18 15 11 7 5 4 6 9 13 19 27 25 19 12 6 -4 -11 -14 -9 -1 2 5 10 11 7 3 3 27 34 26 4 1 2 5 6 4
7 10 13 15 17 18 19 20 22 22 21 21 22 22 21 19 12 3 -4 -8 -3 2 5 3 2 6 12 19 23 22 20 21 21 20 17 10 2 -3 -2 4 11 18 24 31 27 16 4 -2 -6 -5 1 10 19 19 14 7 3 2 7 22 41 35 18 4 6 7 6 3 1
11 11 13 15 17 18 19 19 19 20 21 21 23 23 21 17 9 1 -5 -7 -1 3 5 2 2 5 11 16 18 18 19 21 23 23 19 12 2 -3 -2 5 14 20 26 32 25 10 -5 -14 -12 -7 0 11 21 22 16 5 5 7 14 28 33 21 7 3 6 4 0 -3 -3
15 16 17 17 18 19 19 18 18 19 20 22 23 22 20 15 7 0 -3 -4 -1 2 3 -0 2 6 11 14 14 15 17 21 24 24 22 16 10 6 7 11 17 22 27 29 19 6 -6 -12 -13 -12 -7 3 14 17 16 13 16 16 16 21 18 9 1 2 -0 -5 -9 -9 -2
19 20 21 21 22 22 22 21 20 20 20 22 22 21 17 11 4 -0 -2 -3 -2 -1 -0 -2 2 7 11 12 12 14 16 19 22 24 24 22 19 17 17 19 21 23 24 21 12 3 -4 -6 -5 -2 4 11 17 21 23 26 29 25 18 16 9 3 -2 -3 -7 -12 -12 -4 6
23 24 24 23 23 24 24 26 24 22 22 22 20 17 13 8 3 0 -1 0 0 1 0 -1 2 6 9 11 11 11 12 15 18 21 23 23 22 22 22 23 24 23 20 16 10 6 5 6 10 15 20 27 29 29 31 36 34 27 21 21 7 -1 -5 -5 -8 -8 -4 6 12
22 23 23 23 21 22 25 27 25 24 23 22 18 14 10 7 4 2 1 2 3 2 1 0 2 6 9 13 10 6 5 8 12 16 18 19 19 20 22 25 25 23 21 18 16 14 13 14 16 22 30 39 40 37 33 31 22 19 20 27 10 0 -3 -2 -2 0 5 12 13
17 15 15 17 19 20 22 25 24 21 19 19 16 12 9 6 4 2 2 3 3 2 1 2 4 9 13 17 9 2 -1 3 8 12 14 15 18 22 24 20 15 14 15 15 13 10 6 3 6 15 27 39 42 38 28 12 3 7 18 30 16 5 -1 3 3 6 10 14 13
6 5 7 14 20 23 24 24 21 17 14 16 15 11 8 5 4 3 3 3 3 3 4 5 8 13 18 18 7 -0 -2 3 9 12 15 17 21 20 13 1 -4 -4 -1 3 4 3 -2 -9 -11 -3 9 21 26 26 20 8 4 9 20 30 21 8 -1 2 4 6 9 12 12
-5 1 10 20 24 25 24 21 19 16 15 16 15 13 10 8 8 8 9 9 10 10 10 8 9 12 13 10 3 2 4 11 16 18 18 17 13 5 -4 -11 -10 -6 1 8 13 14 9 -3 -13 -13 -6 4 9 12 15 20 23 25 27 27 22 10 -1 -4 1 5 8 9 10
-5 8 21 28 25 23 20 19 18 18 17 17 16 15 15 15 16 17 20 22 21 18 13 6 4 4 5 4 5 10 17 25 28 27 22 15 8 2 -0 3 11 18 24 29 30 30 26 17 5 -1 -2 3 6 8 12 21 31 33 30 24 20 12 2 -5 -2 2 6 8 10
7 21 30 30 23 19 17 17 17 17 17 17 19 20 20 20 18 20 23 27 27 20 11 3 1 2 5 11 17 23 28 33 36 34 28 21 17 17 21 28 33 35 35 34 32 31 28 25 19 14 11 10 10 11 14 20 27 30 30 28 24 17 8 -1 -3 -2 2 6 9
20 29 32 27 20 15 14 13 12 11 12 15 21 21 17 12 9 11 15 18 22 18 12 7 9 13 18 23 23 23 24 28 30 30 26 21 19 22 27 32 32 29 26 24 22 20 19 17 16 15 15 16 17 19 22 26 28 30 32 34 32 25 14 3 -2 -3 -1 3 4
28 30 28 22 16 12 9 6 4 5 8 14 18 14 7 2 5 10 15 18 20 19 19 23 27 27 25 19 10 6 8 17 23 24 20 13 9 10 14 19 19 17 15 13 10 7 4 3 5 9 14 21 26 30 33 36 35 35 36 38 37 28 16 3 -2 -4 -3 -2 -3
31 29 24 17 12 7 3 -1 -0 4 10 15 14 9 4 3 10 16 21 26 29 28 27 32 32 24 12 1 -5 -6 -2 8 18 22 20 13 6 4 5 9 11 10 7 3 -1 -4 -5 -3 1 7 15 24 32 38 42 44 41 39 38 39 36 25 12 -0 -4 -5 -5 -6 -8
30 26 20 13 8 3 0 -0 6 12 15 17 12 7 5 6 12 16 19 22 38 40 33 21 16 9 1 -6 -7 -5 -2 2 8 14 17 17 11 8 7 9 9 7 3 -2 -4 -2 1 6 9 13 19 26 34 41 45 46 43 41 39 37 30 18 5 -4 -5 -5 -5 -6 -7
24 21 15 8 4 3 5 11 16 20 22 22 11 6 5 7 11 17 21 20 35 35 23 1 1 1 2 1 -1 1 3 1 2 5 9 11 11 10 10 10 10 8 6 4 5 9 14 17 17 19 22 28 32 36 39 40 39 38 35 30 21 12 4 -1 -1 0 1 2 1
17 13 7 1 3 8 15 20 22 25 28 27 13 5 3 6 11 20 27 22 22 12 -2 -11 -3 4 7 7 6 7 7 5 4 4 3 3 4 5 7 8 11 13 14 14 14 15 16 16 15 17 22 26 26 23 21 21 23 24 22 17 13 9 7 6 6 7 8 8 7
9 5 1 0 6 13 19 21 22 24 26 26 13 5 1 4 10 19 23 15 5 -6 -12 -8 2 8 11 9 10 10 11 11 8 5 2 -1 -1 1 4 8 14 19 20 18 12 6 3 2 7 13 19 23 16 8 1 0 5 7 8 7 6 6 7 9 9 9 8 7 7
7 6 6 6 9 15 19 16 15 16 18 19 12 7 4 4 9 12 11 5 -2 -5 -3 2 8 10 9 7 8 9 11 13 12 9 5 1 -2 -2 1 9 17 20 17 9 -0 -9 -15 -16 -7 6 17 21 12 4 -1 -0 5 7 8 6 5 6 9 12 12 11 8 6 6
18 18 15 9 10 13 16 11 9 10 12 14 11 10 9 7 8 5 1 -1 -2 -0 3 8 9 6 4 5 7 8 9 12 13 13 10 7 2 -2 -2 3 11 10 4 -5 -11 -17 -20 -21 -13 1 14 22 17 12 8 9 12 13 12 11 10 9 10 13 13 11 8 6 6
25 20 13 7 13 16 16 11 8 6 6 8 9 9 9 8 6 2 -3 -6 -3 -1 3 7 8 5 4 8 7 6 7 10 11 13 14 14 12 8 4 3 6 4 -1 -9 -12 -13 -13 -10 -2 9 19 27 26 22 15 11 7 4 5 11 15 14 12 10 8 7 5 3 2
22 13 7 4 11 16 18 16 11 7 4 3 3 4 4 4 2 0 -2 -3 -2 -0 3 6 9 10 11 13 7 4 3 5 7 10 13 17 18 17 15 15 15 13 9 4 1 0 1 5 14 22 27 28 23 19 15 10 0 -6 -5 6 19 23 19 10 4 2 1 0 -1
17 14 11 8 8 10 12 14 15 12 8 6 6 6 5 5 4 4 4 3 4 5 7 8 10 13 15 17 14 9 6 3 2 3 4 7 11 14 16 18 19 18 16 13 12 12 13 16 22 26 25 17 4 4 9 9 3 -2 -3 3 16 24 25 15 6 1 -1 -2 -2
24 25 25 22 16 12 10 9 10 9 8 7 7 7 8 9 10 10 9 8 6 6 7 9 11 13 15 19 22 23 22 19 15 12 10 7 7 8 10 12 12 12 11 11 13 15 18 20 22 23 18 1 -2 3 9 10 9 6 4 3 11 20 26 23 13 5 0 -1 1
20 26 32 36 31 25 20 16 14 13 10 8 6 5 6 8 11 13 13 11 8 6 4 4 6 8 11 15 20 24 27 29 30 30 29 26 22 18 14 12 10 9 9 9 13 16 18 19 20 18 11 1 5 9 12 14 12 11 9 8 10 16 22 26 22 16 10 7 7
12 13 17 24 30 34 36 36 35 33 30 24 19 17 17 18 21 23 25 26 24 19 12 5 5 6 8 9 8 10 15 22 27 31 34 36 35 32 29 25 21 19 17 17 18 18 18 18 18 15 10 7 8 10 13 15 13 12 11 11 12 13 16 19 20 19 16 12 9
23 22 20 19 18 17 16 16 21 28 36 40 37 35 33 31 32 33 34 35 34 30 23 17 16 15 13 8 2 1 3 8 10 11 14 18 24 28 30 31 30 28 26 24 23 22 21 20 18 15 13 11 11 11 11 12 11 10 9 9 10 10 10 10 10 9 8 5 3
28 26 25 23 20 16 13 9 7 9 15 22 23 23 22 21 24 28 30 32 32 31 29 28 28 27 24 18 11 7 7 9 7 4 1 -0 3 8 15 21 21 21 21 21 21 21 20 20 18 17 15 14 12 12 11 11 11 10 9 8 8 8 8 8 7 6 5 3 2
24 26 26 26 23 18 13 7 2 0 1 4 5 5 4 3 5 8 13 21 24 24 24 24 26 26 26 23 19 18 19 21 22 20 17 12 7 5 6 8 9 11 14 15 14 15 15 16 16 17 17 16 15 15 15 15 15 15 15 14 13 13 13 13 14 15 16 15 16
9 12 15 20 23 25 25 22 17 13 9 5 3 1 1 1 0 -1 -0 4 10 12 12 11 13 14 15 15 16 17 17 18 20 23 26 27 23 18 12 9 9 10 11 12 11 11 11 11 11 12 13 14 14 15 15 16 17 18 19 19 19 19 21 23 25 28 30 31 33
5 5 5 6 8 11 14 17 20 23 25 26 26 25 24 21 19 16 13 11 10 10 8 6 5 5 6 8 9 9 7 5 5 7 12 17 20 19 16 13 12 12 11 11 12 12 12 11 9 8 7 7 8 9 10 11 12 14 16 17 18 21 24 28 32 35 35 34 30
7 7 6 5 5 5 5 6 7 9 10 12 15 18 21 23 24 25 26 26 24 21 18 14 10 6 4 3 3 2 1 -1 -1 0 3 6 9 10 10 10 9 9 9 8 9 11 15 17 17 15 12 9 7 7 6 6 6 8 11 14 19 23 27 31 30 25 18 9 1
8 8 7 7 7 6 6 5 5 5 5 5 6 7 9 11 13 15 17 19 23 25 26 25 20 15 10 6 4 2 0 -1 -1 1 3 6 6 6 5 5 4 3 3 1 -1 0 5 14 19 22 22 21 19 17 15 13 13 13 15 19 24 28 29 25 14 2 -9 -18 -21
7 7 7 7 7 7 7 7 7 6 5 5 5 5 5 6 7 9 11 12 15 19 22 26 27 25 22 19 16 14 12 10 8 6 6 7 7 7 7 7 6 4 2 -1 -6 -8 -7 -1 7 14 19 24 27 29 29 27 26 26 25 26 25 21 14 5 -5 -11 -13 -13 -9
6 6 7 7 7 7 7 7 7 7 7 7 6 6 5 5 5 5 6 8 11 14 19 24 28 30 30 27 25 24 24 25 24 22 18 14 11 10 10 11 13 13 11 7 2 -3 -6 -7 -3 2 8 13 21 30 36 38 36 32 27 21 12 4 -3 -7 -6 -2 3 8 13
5 6 6 7 7 7 7 7 7 7 7 7 7 7 7 7 6 5 5 5 6 8 12 18 25 28 28 24 19 17 17 22 26 29 29 28 23 20 18 16 17 18 18 17 15 12 9 5 3 3 3 5 11 21 31 38 34 28 19 10 1 -3 -4 -1 4 9 14 18 21
3 4 5 6 7 7 8 8 8 7 7 7 7 7 6 7 7 7 7 6 5 5 6 9 14 19 22 21 18 17 17 17 17 19 22 25 26 26 24 22 21 20 21 21 22 22 22 20 16 11 8 5 6 12 19 26 22 15 7 1 -1 1 4 8 11 12 13 14 14
Height
2944 2945 2945 2946 2947 2948 2949 2950 2952 2954 2956 2957 2960 2962 2964 2967 2970 2973 2976 2980 2982 2985 2987 2989 2993 2996 2998 3000 3001 3002 3004 3007 3010 3012 3014 3017 3019 3021 3022 3024 3026 3028 3029 3031 3034 3036 3037 3039 3041 3043 3047 3049 3050 3052 3054 3057 3060 3063 3066 3068 3070 3072 3075 3079 3083 3086 3090 3093 3096
2942 2943 2944 2945 2945 2946 2947 2949 2951 2952 2954 2956 2958 2960 2963 2966 2968 2971 2975 2978 2981 2983 2985 2987 2991 2994 2996 2997 2998 3000 3002 3005 3007 3010 3012 3014 3017 3018 3020 3022 3023 3025 3027 3030 3032 3033 3034 3035 3037 3041 3044 3047 3048 3050 3052 3054 3056 3059 3062 3063 3065 3067 3071 3075 3080 3083 3087 3090 3093
2941 2942 2942 2943 2944 2945 2946 2947 2949 2951 2952 2955 2957 2959 2962 2964 2967 2970 2973 2977 2979 2981 2983 2985 2988 2991 2993 2994 2996 2998 3000 3002 3005 3008 3010 3012 3014 3016 3018 3019 3021 3023 3025 3027 3030 3031 3032 3032 3035 3038 3041 3044 3046 3048 3049 3051 3053 3055 3057 3058 3062 3065 3068 3072 3076 3080 3083 3086 3089
2940 2941 2941 2942 2942 2944 2945 2947 2948 2950 2952 2954 2956 2958 2960 2963 2966 2969 2972 2975 2977 2979 2981 2983 2985 2988 2991 2992 2994 2996 2998 3001 3003 3006 3008 3010 3012 3014 3016 3017 3019 3021 3023 3025 3028 3030 3030 3031 3032 3035 3037 3040 3042 3044 3046 3048 3050 3051 3052 3055 3059 3062 3065 3069 3073 3077 3080 3083 3086
2939 2940 2941 2941 2942 2943 2944 2946 2947 2949 2951 2953 2955 2957 2959 2962 2964 2967 2970 2972 2974 2977 2979 2981 2983 2985 2988 2990 2992 2994 2997 2999 3001 3003 3006 3008 3010 3012 3014 3016 3017 3018 3020 3023 3026 3028 3029 3030 3031 3032 3033 3036 3038 3040 3042 3044 3045 3047 3050 3054 3057 3061 3064 3067 3071 3073 3077 3080 3083
2938 2938 2939 2940 2941 2942 2944 2945 2947 2948 2950 2952 2954 2956 2958 2961 2963 2966 2968 2970 2972 2974 2977 2979 2981 2983 2986 2987 2989 2992 2994 2997 2999 3002 3003 3005 3007 3010 3012 3014 3015 3016 3018 3021 3024 3026 3027 3028 3029 3030 3032 3034 3036 3037 3038 3040 3041 3043 3047 3052 3055 3059 3062 3066 3068 3071 3074 3077 3081
2937 2937 2938 2939 2940 2942 2943 2944 2946 2947 2949 2951 2952 2954 2957 2960 2962 2964 2967 2968 2970 2973 2975 2977 2979 2981 2983 2985 2987 2990 2992 2995 2997 2999 3001 3003 3005 3007 3009 3011 3013 3014 3016 3018 3022 3024 3025 3025 3027 3029 3031 3032 3034 3035 3035 3036 3037 3041 3045 3048 3052 3057 3060 3063 3066 3068 3072 3075 3078
2936 2937 2937 2938 2939 2941 2942 2943 2945 2946 2948 2949 2951 2954 2956 2959 2961 2963 2965 2967 2969 2971 2973 2975 2977 2979 2981 2982 2985 2987 2990 2992 2995 2997 2998 3000 3002 3004 3006 3008 3010 3012 3014 3017 3019 3020 3022 3023 3025 3027 3028 3029 3031 3031 3032 3033 3036 3039 3042 3045 3049 3053 3057 3060 3063 3066 3069 3072 3075
2934 2935 2936 2937 2938 2940 2941 2943 2944 2946 2947 2948 2951 2953 2956 2958 2961 2963 2964 2966 2967 2969 2971 2973 2976 2978 2979 2981 2983 2986 2988 2990 2992 2994 2996 2997 2999 3001 3003 3005 3007 3010 3012 3014 3016 3017 3019 3022 3023 3025 3026 3026 3027 3028 3029 3032 3035 3037 3039 3042 3045 3050 3053 3057 3059 3062 3065 3069 3072
2934 2934 2936 2937 2938 2939 2941 2942 2943 2945 2947 2948 2951 2953 2955 2958 2960 2962 2964 2965 2967 2969 2970 2972 2974 2976 2978 2980 2982 2984 2986 2988 2990 2991 2993 2995 2996 2998 3000 3003 3006 3008 3010 3011 3013 3015 3017 3019 3021 3022 3023 3024 3025 3026 3028 3032 3034 3035 3037 3039 3042 3046 3050 3053 3056 3059 3062 3065 3068
2933 2934 2935 2937 2937 2939 2940 2941 2943 2944 2946 2948 2951 2953 2955 2957 2959 2962 2963 2965 2967 2968 2969 2971 2973 2975 2977 2979 2981 2983 2985 2987 2988 2990 2991 2993 2995 2997 3000 3002 3005 3006 3007 3009 3010 3012 3014 3016 3017 3019 3021 3022 3024 3026 3028 3030 3032 3033 3035 3037 3039 3042 3046 3050 3053 3056 3059 3062 3065
2933 2934 2935 2936 2937 2938 2939 2941 2942 2944 2946 2948 2950 2952 2955 2957 2959 2961 2963 2965 2966 2967 2968 2970 2972 2973 2975 2978 2980 2982 2984 2985 2987 2988 2990 2992 2994 2997 3000 3002 3003 3004 3005 3006 3008 3009 3011 3012 3014 3016 3018 3021 3023 3025 3027 3028 3029 3030 3031 3033 3036 3039 3042 3046 3050 3053 3056 3059 3062
2933 2933 2934 2935 2937 2938 2939 2940 2942 2943 2945 2947 2949 2952 2954 2956 2958 2961 2962 2964 2965 2966 2968 2970 2971 2972 2975 2977 2979 2981 2982 2984 2986 2988 2990 2992 2994 2996 2998 3000 3001 3002 3002 3004 3005 3007 3008 3010 3012 3014 3016 3018 3020 3022 3024 3026 3027 3027 3028 3030 3032 3035 3038 3042 3046 3049 3052 3055 3058
2932 2933 2934 2935 2936 2937 2938 2940 2942 2943 2945 2947 2949 2951 2953 2956 2958 2960 2961 2963 2964 2966 2967 2969 2970 2972 2974 2977 2979 2980 2982 2984 2986 2988 2990 2992 2993 2995 2996 2997 2998 2998 3000 3001 3002 3004 3006 3007 3010 3012 3014 3016 3017 3019 3021 3022 3024 3024 3025 3027 3029 3032 3034 3037 3041 3044 3048 3051 3054
2932 2932 2933 2934 2936 2937 2938 2939 2941 2943 2945 2947 2949 2951 2953 2955 2956 2958 2960 2962 2963 2964 2966 2967 2969 2972 2974 2977 2978 2980 2982 2983 2986 2987 2989 2990 2992 2993 2993 2994 2995 2996 2997 2998 3000 3002 3004 3006 3008 3010 3011 3013 3015 3016 3018 3020 3021 3022 3022 3024 3026 3028 3031 3033 3037 3040 3043 3047 3050
2932 2932 2933 2934 2935 2936 2937 2939 2941 2942 2944 2946 2947 2949 2951 2953 2954 2957 2959 2961 2962 2963 2965 2966 2968 2971 2974 2976 2977 2979 2981 2982 2984 2985 2987 2988 2989 2990 2990 2991 2992 2994 2996 2997 2999 3001 3003 3004 3006 3007 3009 3010 3012 3014 3015 3017 3017 3018 3020 3021 3023 3025 3028 3031 3034 3037 3040 3043 3046
2932 2932 2933 2933 2934 2935 2937 2938 2939 2941 2942 2945 2946 2948 2950 2952 2954 2956 2959 2961 2962 2962 2964 2966 2967 2970 2972 2973 2975 2977 2978 2980 2981 2983 2984 2986 2987 2987 2988 2989 2991 2992 2994 2996 2998 2999 3001 3002 3004 3005 3007 3008 3009 3011 3012 3014 3015 3016 3017 3019 3021 3023 3026 3029 3032 3035 3037 3040 3042
2931 2932 2932 2933 2934 2935 2936 2937 2938 2940 2942 2944 2946 2948 2950 2952 2954 2956 2957 2959 2961 2962 2964 2965 2967 2968 2970 2972 2973 2975 2976 2977 2979 2980 2982 2984 2985 2987 2987 2989 2990 2992 2993 2995 2996 2997 2999 3000 3002 3003 3004 3005 3006 3008 3010 3012 3013 3014 3016 3018 3020 3022 3025 3028 3031 3033 3036 3038 3041
2932 2932 2933 2934 2935 2935 2936 2936 2937 2940 2943 2945 2946 2948 2950 2952 2953 2954 2955 2957 2958 2961 2963 2965 2966 2968 2969 2971 2972 2973 2975 2976 2977 2979 2981 2983 2985 2986 2987 2988 2989 2990 2992 2993 2994 2996 2997 2998 2999 3001 3002 3003 3004 3006 3008 3010 3012 3014 3016 3018 3020 3022 3025 3027 3030 3032 3035 3037 3040
2932 2933 2934 2935 2935 2935 2935 2936 2938 2941 2943 2945 2947 2949 2950 2951 2952 2952 2953 2954 2956 2959 2962 2964 2966 2967 2969 2971 2972 2973 2974 2975 2977 2978 2980 2982 2983 2984 2985 2986 2987 2988 2989 2991 2992 2993 2995 2996 2997 2998 2999 3001 3002 3004 3006 3009 3011 3013 3016 3018 3020 3022 3025 3027 3029 3032 3034 3037 3039
2933 2934 2935 2936 2936 2936 2936 2938 2940 2942 2942 2944 2946 2948 2950 2951 2951 2951 2952 2953 2955 2958 2960 2962 2963 2965 2967 2969 2971 2973 2974 2976 2977 2978 2979 2980 2982 2982 2983 2984 2985 2986 2987 2989 2990 2992 2993 2994 2995 2997 2998 3000 3001 3003 3006 3008 3010 3012 3015 3017 3019 3021 3023 3026 3028 3031 3033 3035 3037
2932 2933 2934 2935 2937 2938 2939 2940 2941 2942 2942 2943 2945 2948 2950 2951 2951 2951 2951 2952 2955 2957 2959 2960 2961 2963 2965 2967 2969 2971 2973 2975 2977 2978 2979 2980 2981 2982 2983 2983 2983 2984 2986 2987 2988 2989 2990 2992 2993 2995 2997 2998 3001 3003 3005 3007 3009 3011 3013 3015 3017 3020 3022 3024 3026 3028 3031 3033 3035
2933 2934 2935 2936 2937 2938 2940 2942 2942 2943 2944 2945 2947 2948 2950 2952 2952 2952 2952 2952 2954 2956 2958 2959 2960 2962 2964 2966 2967 2969 2970 2972 2974 2975 2977 2978 2980 2982 2983 2984 2984 2984 2984 2984 2985 2987 2988 2990 2992 2994 2996 2998 3000 3002 3004 3006 3008 3010 3012 3014 3016 3018 3020 3022 3024 3026 3028 3030 3032
2934 2936 2937 2937 2938 2938 2939 2940 2941 2942 2943 2945 2946 2948 2950 2952 2953 2953 2952 2952 2954 2956 2957 2958 2960 2962 2963 2965 2966 2967 2968 2969 2971 2972 2974 2976 2977 2979 2980 2982 2983 2984 2983 2982 2983 2985 2987 2988 2990 2992 2994 2997 2998 3000 3002 3004 3006 3008 3010 3012 3014 3016 3018 3019 3021 3023 3026 3028 3030
2935 2937 2938 2938 2939 2940 2941 2942 2942 2943 2945 2946 2947 2948 2949 2951 2952 2953 2953 2953 2954 2955 2956 2958 2959 2961 2962 2963 2964 2966 2967 2968 2970 2971 2972 2974 2975 2976 2977 2979 2981 2982 2982 2982 2982 2984 2986 2987 2989 2991 2992 2994 2996 2997 2999 3001 3003 3006 3008 3010 3012 3014 3015 3017 3018 3021 3022 3025 3027
2935 2937 2938 2939 2940 2941 2942 2943 2944 2945 2947 2947 2948 2949 2950 2950 2951 2952 2953 2954 2955 2955 2956 2957 2958 2959 2961 2962 2963 2964 2966 2967 2969 2970 2972 2973 2974 2975 2976 2977 2979 2980 2981 2981 2982 2983 2984 2986 2987 2989 2990 2992 2993 2996 2998 3000 3002 3004 3006 3008 3009 3011 3012 3014 3015 3017 3019 3021 3023
2934 2936 2938 2939 2941 2942 2943 2944 2945 2946 2947 2948 2949 2950 2950 2951 2951 2952 2952 2953 2955 2956 2957 2957 2958 2958 2959 2960 2962 2963 2964 2966 2967 2968 2970 2971 2972 2974 2975 2977 2978 2979 2979 2980 2980 2982 2983 2984 2986 2987 2988 2989 2992 2994 2996 2998 3000 3002 3004 3005 3007 3007 3008 3010 3012 3014 3016 3018 3020
2935 2936 2938 2939 2940 2942 2943 2944 2945 2946 2947 2948 2949 2950 2950 2951 2951 2952 2952 2953 2954 2955 2956 2957 2958 2959 2959 2960 2961 2961 2962 2963 2964 2965 2967 2968 2969 2971 2972 2974 2976 2978 2979 2979 2979 2980 2982 2982 2984 2985 2986 2988 2990 2992 2993 2995 2997 2999 3001 3002 3002 3004 3005 3007 3009 3011 3013 3015 3017
2936 2937 2938 2939 2940 2941 2942 2943 2944 2946 2947 2948 2949 2949 2950 2951 2951 2952 2952 2953 2954 2955 2956 2956 2956 2957 2958 2959 2959 2960 2961 2961 2962 2963 2964 2965 2966 2968 2969 2971 2973 2975 2976 2977 2977 2978 2979 2981 2982 2983 2985 2987 2989 2990 2991 2992 2993 2994 2996 2997 2999 3001 3002 3004 3006 3008 3011 3013 3015
2938 2938 2938 2939 2940 2940 2941 2942 2943 2945 2946 2947 2947 2948 2949 2950 2951 2952 2952 2953 2954 2955 2955 2956 2956 2956 2956 2957 2958 2959 2959 2960 2961 2962 2962 2963 2964 2966 2967 2968 2970 2971 2972 2974 2975 2976 2977 2978 2980 2981 2983 2985 2986 2987 2988 2989 2990 2992 2994 2995 2997 2999 3001 3002 3004 3007 3008 3011 3012
2941 2941 2940 2940 2940 2940 2940 2941 2942 2943 2945 2946 2947 2947 2948 2949 2950 2950 2951 2952 2953 2954 2955 2955 2956 2956 2956 2957 2958 2958 2959 2959 2960 2961 2961 2962 2963 2964 2965 2966 2967 2968 2970 2971 2972 2974 2975 2977 2978 2979 2981 2982 2983 2984 2985 2987 2988 2990 2992 2994 2995 2997 2999 3001 3002 3004 3006 3008 3010
2944 2943 2943 2943 2942 2942 2942 2942 2942 2942 2942 2944 2945 2946 2947 2948 2949 2949 2950 2950 2951 2952 2953 2954 2955 2956 2957 2957 2958 2959 2959 2959 2960 2961 2961 2961 2962 2963 2964 2965 2966 2967 2968 2969 2971 2972 2973 2974 2976 2977 2978 2979 2980 2982 2983 2985 2987 2988 2990 2992 2993 2995 2997 2998 3000 3002 3003 3005 3007
2946 2946 2945 2945 2945 2945 2945 2945 2944 2944 2944 2944 2944 2945 2946 2947 2948 2948 2949 2949 2950 2951 2952 2952 2953 2955 2956 2957 2957 2958 2959 2959 2960 2961 2962 2963 2963 2963 2964 2965 2966 2966 2967 2968 2969 2971 2972 2973 2974 2975 2976 2977 2978 2980 2981 2983 2984 2986 2987 2989 2990 2992 2993 2995 2997 2998 3000 3002 3003
2947 2947 2947 2947 2947 2947 2947 2947 2947 2947 2947 2946 2947 2947 2947 2947 2948 2948 2948 2948 2949 2950 2950 2951 2951 2952 2953 2955 2956 2957 2957 2958 2959 2960 2961 2962 2963 2964 2965 2965 2965 2966 2967 2968 2969 2969 2970 2971 2972 2973 2974 2975 2976 2977 2979 2980 2981 2982 2984 2985 2987 2988 2990 2991 2993 2995 2997 2998 3001
2949 2949 2949 2949 2949 2949 2948 2948 2948 2948 2948 2948 2948 2948 2948 2948 2948 2948 2948 2948 2949 2949 2949 2950 2950 2951 2951 2952 2954 2955 2956 2957 2958 2958 2959 2960 2961 2962 2963 2963 2964 2965 2966 2967 2968 2969 2970 2970 2971 2972 2972 2973 2974 2975 2977 2978 2979 2980 2981 2983 2984 2986 2987 2989 2991 2992 2995 2997 3000
2951 2951 2950 2950 2950 2950 2950 2950 2950 2950 2950 2949 2949 2949 2949 2949 2949 2949 2949 2949 2949 2949 2949 2949 2950 2950 2951 2952 2952 2953 2954 2955 2956 2957 2957 2958 2959 2960 2961 2961 2962 2963 2963 2965 2966 2967 2968 2970 2970 2971 2972 2972 2973 2974 2975 2976 2977 2978 2980 2981 2983 2984 2986 2988 2990 2992 2994 2997 2998
2952 2952 2952 2952 2951 2951 2951 2951 2951 2950 2950 2950 2950 2950 2950 2949 2949 2949 2949 2949 2949 2949 2949 2949 2950 2950 2950 2951 2951 2952 2952 2953 2954 2955 2956 2956 2957 2958 2958 2959 2960 2961 2962 2962 2963 2964 2966 2967 2968 2969 2970 2971 2972 2973 2974 2975 2976 2977 2978 2980 2982 2983 2985 2987 2989 2991 2993 2994 2996
2954 2953 2953 2953 2952 2952 2952 2952 2951 2951 2951 2950 2950 2950 2950 2950 2950 2950 2950 2949 2949 2949 2949 2949 2949 2949 2950 2950 2951 2951 2951 2952 2952 2953 2954 2954 2955 2956 2957 2957 2958 2959 2960 2960 2961 2962 2962 2964 2965 2967 2968 2969 2970 2971 2972 2973 2974 2975 2977 2978 2980 2982 2984 2986 2987 2989 2990 2991 2992
2954 2954 2954 2954 2954 2953 2953 2952 2952 2952 2951 2951 2951 2950 2950 2950 2950 2950 2950 2950 2950 2949 2949 2949 2949 2949 2950 2950 2950 2950 2950 2951 2951 2951 2952 2952 2953 2954 2954 2955 2956 2957 2958 2958 2959 2960 2961 2962 2963 2964 2966 2967 2968 2969 2970 2971 2972 2973 2975 2977 2978 2980 2982 2983 2985 2987 2988 2989 2990
2954 2954 2954 2954 2954 2954 2954 2953 2953 2952 2952 2952 2951 2951 2950 2950 2950 2950 2950 2950 2950 2950 2950 2949 2950 2950 2950 2950 2950 2950 2950 2950 2950 2950 2951 2951 2951 2952 2952 2953 2954 2955 2956 2957 2957 2958 2959 2960 2961 2962 2963 2964 2966 2967 2968 2969 2970 2972 2973 2975 2976 2978 2979 2981 2982 2984 2985 2986 2987
2954 2954 2954 2954 2954 2954 2954 2954 2954 2953 2953 2952 2952 2951 2951 2951 2950 2950 2950 2949 2949 2949 2949 2949 2949 2949 2949 2949 2949 2949 2949 2949 2949 2950 2950 2950 2950 2951 2951 2952 2952 2952 2953 2954 2955 2956 2957 2957 2958 2960 2961 2962 2963 2964 2966 2967 2968 2970 2971 2972 2974 2975 2977 2978 2979 2981 2982 2983 2984